KJ6MC Weather Reports


Display with metric or nautical units.
time (UTC)temp
F
wind
direction
speed
MPH
gust
MPH
rain 1hr
in
rain 24hr
in
rain mn
in
humidity
%
barometer
mb
20171214040721 44 258 0.0 0.0 0.00 0.01 0.01 85 1018.1
20171214034721 44 258 0.0 0.0 0.00 0.01 0.01 83 1018.1
20171214032721 46 258 0.0 0.0 0.00 0.01 0.01 81 1018.1
20171214031721 46 258 0.0 0.0 0.00 0.01 0.01 83 1018.0
20171214030720 46 258 0.0 0.0 0.00 0.01 0.01 81 1017.9
20171214024720 47 258 0.0 0.0 0.00 0.01 0.01 79 1017.8
20171214021720 48 258 0.0 0.0 0.00 0.01 0.01 76 1017.7
20171214014720 50 258 0.0 0.0 0.00 0.01 0.01 71 1017.9
20171214013719 51 258 0.0 0.0 0.00 0.01 0.01 69 1017.9
20171214004719 56 180 0.0 1.0 0.00 0.01 0.01 59 1017.9
20171214003718 58 208 0.0 0.0 0.00 0.01 0.01 56 1017.9
20171214001718 59 177 0.0 0.0 0.00 0.01 0.01 51 1018.0
20171213232717 62 216 0.0 2.0 0.00 0.01 0.01 47 1018.0
20171213231718 61 248 0.0 2.0 0.00 0.01 0.01 48 1018.1
20171213230717 60 245 0.0 2.0 0.00 0.01 0.01 49 1018.2
20171213222717 60 259 1.0 3.0 0.00 0.01 0.01 48 1018.3
20171213215716 59 264 0.0 3.0 0.00 0.01 0.01 53 1018.6
20171213214716 58 2 0.0 3.0 0.00 0.01 0.01 52 1018.7
20171213212716 58 226 0.0 3.0 0.00 0.01 0.01 55 1018.8
20171213211716 57 357 1.0 3.0 0.00 0.01 0.01 56 1019.0
20171213210715 56 359 0.0 2.0 0.00 0.01 0.01 58 1019.1
20171213205715 56 357 2.0 3.0 0.00 0.01 0.01 60 1019.4
20171213194714 54 352 0.0 5.0 0.00 0.01 0.01 68 1021.0
20171213193714 53 6 1.0 4.0 0.00 0.01 0.01 70 1021.1
20171213191714 51 9 0.0 3.0 0.00 0.01 0.01 73 1021.4
20171213184713 49 347 0.0 3.0 0.00 0.01 0.01 76 1022.2
20171213183713 48 353 1.0 3.0 0.00 0.01 0.01 77 1022.3
20171213182713 48 8 1.0 3.0 0.00 0.01 0.01 78 1022.6
20171213181713 47 336 1.0 3.0 0.00 0.01 0.01 80 1022.8
20171213180713 47 342 0.0 3.0 0.00 0.01 0.01 81 1022.7
20171213173712 43 349 1.0 1.0 0.00 0.01 0.01 86 1022.7
20171213171712 42 10 0.0 2.0 0.00 0.01 0.01 88 1022.6
20171213170712 41 18 0.0 2.0 0.00 0.01 0.01 88 1022.6
20171213164712 39 341 0.0 0.0 0.00 0.01 0.01 92 1022.5
20171213163711 40 340 0.0 0.0 0.00 0.01 0.01 94 1022.4
20171213162712 38 341 0.0 0.0 0.00 0.01 0.01 96 1022.4
20171213160711 35 341 0.0 0.0 0.00 0.01 0.01 96 1022.5
20171213154711 33 340 0.0 0.0 0.01 0.01 0.01 96 1022.1
20171213153711 33 340 0.0 0.0 0.01 0.01 0.01 96 1022.2
20171213142710 32 340 0.0 0.0 0.00 0.00 0.00 95 1022.2
20171213141709 33 341 0.0 0.0 0.00 0.00 0.00 95 1022.5
20171213140709 33 341 0.0 0.0 0.00 0.00 0.00 96 1022.5
20171213135709 33 341 0.0 1.0 0.00 0.00 0.00 95 1022.5
20171213134709 32 341 0.0 1.0 0.00 0.00 0.00 95 1022.6
20171213133709 33 340 0.0 1.0 0.00 0.00 0.00 96 1022.6
20171213132709 32 126 0.0 0.0 0.00 0.00 0.00 95 1022.4
20171213130709 32 126 0.0 0.0 0.00 0.00 0.00 95 1022.2
20171213125709 32 126 0.0 0.0 0.00 0.00 0.00 95 1022.2
20171213123708 32 126 0.0 0.0 0.00 0.00 0.00 95 1022.1
20171213122708 33 126 0.0 0.0 0.00 0.00 0.00 95 1022.0
20171213121708 33 126 0.0 0.0 0.00 0.00 0.00 94 1021.9
20171213120708 33 126 0.0 0.0 0.00 0.00 0.00 95 1021.9
20171213115708 34 126 0.0 0.0 0.00 0.00 0.00 95 1021.9
20171213114707 33 126 0.0 0.0 0.00 0.00 0.00 94 1022.0
20171213113708 33 126 0.0 0.0 0.00 0.00 0.00 94 1022.1
20171213112708 34 126 0.0 0.0 0.00 0.00 0.00 94 1022.3
20171213110849 34 126 0.0 0.0 0.00 0.00 0.00 94 1022.4
20171213100849 37 128 0.0 1.0 0.00 0.00 0.00 93 1022.3
20171213090848 37 142 0.0 2.0 0.00 0.00 0.00 93 1022.4
20171213085847 37 159 0.0 1.0 0.00 0.00 0.00 93 1022.4
20171213084847 37 165 0.0 1.0 0.00 0.00 0.00 93 1022.5
20171213083847 37 147 0.0 1.0 0.00 0.00 0.00 94 1022.5
20171213082847 37 177 0.0 0.0 0.00 0.00 0.00 94 1022.5
20171213081847 37 177 0.0 0.0 0.00 0.00 0.00 95 1022.6
20171213080847 36 177 0.0 0.0 0.00 0.00 0.00 94 1022.7
20171213075847 36 177 0.0 0.0 0.00 0.00 0.00 94 1022.6
20171213074847 36 177 0.0 0.0 0.00 0.00 0.00 93 1022.7
20171213072846 37 177 0.0 0.0 0.00 0.00 0.00 93 1022.6
20171213070846 38 177 0.0 0.0 0.00 0.00 0.00 92 1022.4
20171213065846 38 177 0.0 0.0 0.00 0.00 0.00 92 1022.5
20171213064846 39 177 0.0 0.0 0.00 0.00 0.00 92 1022.4
20171213063845 39 177 0.0 0.0 0.00 0.00 0.00 93 1022.3
20171213062845 39 177 0.0 0.0 0.00 0.00 0.00 91 1022.3
20171213061845 39 177 0.0 0.0 0.00 0.00 0.00 90 1022.3
20171213055845 40 177 0.0 0.0 0.00 0.00 0.00 90 1022.2
20171213052845 40 177 0.0 1.0 0.00 0.00 0.00 90 1022.1
20171213041844 42 252 0.0 0.0 0.00 0.00 0.00 87 1022.0